NOAA NWS Hourly Roundups by Site

Regional Weather Roundup for Bismarck, ND

To Select Another Site Choose from List

Select Site:  

000
ASUS43 KBIS 060810
RWRBIS

NWR BROADCAST TEXT
NATIONAL WEATHER SERVICE BISMARCK ND
200 AM CST FRI DEC 06 2019

NOTE: "FAIR" INDICATES FEW OR NO CLOUDS BELOW 12,000 FEET WITH NO
SIGNIFICANT WEATHER AND/OR OBSTRUCTIONS TO VISIBILITY.


CITY           SKY/WX    TMP DP  RH WIND       PRES   REMARKS
WILLISTON      CLOUDY    19  16  88 S9        30.17F WCI   8
MINOT          CLEAR     12   9  87 S3        30.24F
MINOT AFB      CLEAR     12   8  86 S5        30.23F WCI   4
BISMARCK       CLOUDY    22  17  81 S3        30.31S
DICKINSON      CLOUDY    20  17  88 S9        30.19F WCI   9
GARRISON         N/A     11   9  92 CALM      30.25F
HETTINGER ARPT MOCLDY     6   4  91 CALM      30.23F
JAMESTOWN      MOCLDY    16  14  92 SW6       30.30S WCI   7
CARRINGTON     FAIR       9   7  92 W6        30.30F WCI  -1
HAZEN          FAIR       9   9 100 CALM      30.29F FOG
MANDAN         FAIR      19  18  93 S6        30.29S FOG     WCI  11
OAKES          CLOUDY    23  19  86 N6        30.33S WCI  16
RUGBY          FAIR       7   7 100 S5        30.26F WCI  -2
STANLEY        FAIR      10  10 100 S5        30.21F WCI   2
TIOGA          FAIR       7   7 100 NE5       30.20F WCI  -2
WATFORD CITY   PTSUNNY   18  18 100 SE6       30.21S WCI   9
$$

CITY           SKY/WX    TMP DP  RH WIND       PRES   REMARKS
GRAND FORKS    PTCLDY     5   3  91 CALM      30.33S
GRAND FORKS AF MOCLDY     4   1  86 W6        30.33S WCI  -6
DEVILS LAKE    CLEAR      4   1  88 CALM      30.29S
FARGO          CLOUDY    19  15  84 CALM      30.33S
CANDO          FAIR       1   1 100 CALM      30.29F
CAVALIER       CLOUDY    16  12  86 SE3       30.31S
GRAFTON        CLOUDY    18  14  86 CALM      30.34F
GWINNER        CLOUDY    25  21  86 NW7       30.33S WCI  17
LANGDON        FAIR       0  -2  92 SW6       30.26S WCI -12
ROLLA          FAIR       3   0  85 SW5       30.24S WCI  -6
WALHALLA       PTSUNNY   12  12 100 SW5       30.30S WCI   4
$$

CITY           SKY/WX    TMP DP  RH WIND       PRES   REMARKS
ABERDEEN       CLOUDY    26  19  74 N6        30.36S WCI  19
MOBRIDGE       MOCLDY    18  15  88 CALM      30.29S
BUFFALO          N/A     24  20  84 SE8       30.17F WCI  15
RAPID CITY     CLOUDY    30  27  88 SE13      30.23F WCI  20
GLASGOW        CLEAR     22  17  81 E13       30.10F WCI  10
SIDNEY         CLOUDY    20  18  92 CALM      30.19F
WOLF POINT     PTCLDY    21  17  84 NE9       30.16F WCI  11
GLENDIVE       MOCLDY    26  23  88 S7        30.16F WCI  18
MILES CITY     CLEAR     25  23  92 SE6       30.13F WCI  18
BAKER          MOCLDY    22  20  92 E8        30.17F WCI  12
$$

CITY           SKY/WX    TMP DP  RH WIND       PRES   REMARKS
BILLINGS       CLOUDY    31  26  82 SW13      30.11F
GREAT FALLS    PTCLDY    36  25  64 SW14      30.02F
REGINA         CLOUDY    10   9  92 SE8       30.12F WCI  -1
ESTEVAN        FOG       12   9  85 SW6       30.19F VSB 1/4 WCI   3
$$



 

View Past Reports for Bismarck, ND.

Products Courtesy of NOAA-NWS
NWS Information Parsing Script by Ken True at Saratoga Weather - Script by SE Lincoln Weather.